User: anonymous   Login
Location: Tauranga
(37.6860°S, 176.1670°E)
Time: 21:24:07
(UTC+13:00)
Language:

Cosmos 1939 Rocket - Orbit

View from above orbital plane
View from above orbital plane
View from above satellite
View from above satellite

Ground track
Ground track

The orbit data is extracted from the following two-line orbital elements,

1 19046U 88032B   19081.17072011  .00000583  00000-0  47741-4 0  9992
2 19046  97.4481 116.2086 0036340 308.3631  51.4331 15.02552889669181
Epoch (UTC): 22 March 2019 04:05:50
Eccentricity: 0.0036340
inclination: 97.4481°
perigee height: 534 km
apogee height: 584 km
right ascension of ascending node: 116.2086°
argument of perigee: 308.3631°
revolutions per day: 15.02552889
mean anomaly at epoch: 51.4331°
orbit number at epoch: 66918

The dashed part of the orbit path shows where the satellite is in the earth's shadow,  

DLR